Regional Weather Roundup
Issued by NWS Little Rock, AR

Home | Current Version | Previous Version | Text Only | Print | Product List | Glossary Off
Versions: 1 2 3 4 5 6 7 8 9 10 11 12 13 14 15 16 17 18 19 20 21 22 23 24 25 26 27 28 29 30 31 32 33 34 35 36 37 38 39 40 41 42 43 44 45 46 47 48 49 50

000
ASUS44 KLZK 281205
RWRLZK

WEATHER ROUNDUP FOR ARKANSAS
NATIONAL WEATHER SERVICE LITTLE ROCK AR
700 AM CDT FRI AUG 28 2015

NOTE: "FAIR" INDICATES FEW OR NO CLOUDS BELOW 12,000 FEET WITH NO
SIGNIFICANT WEATHER AND/OR OBSTRUCTIONS TO VISIBILITY.

ARZ001-003-010-029-281300-
NORTHWEST ARKANSAS

CITY           SKY/WX    TMP DP  RH WIND       PRES   REMARKS
FAYETTEVILLE   PTCLDY    58  58 100 CALM      30.05S
6HR MIN TEMP:  56; 6HR MAX TEMP:  66;

FORT SMITH     CLEAR     63  59  87 NE7       30.03S
6HR MIN TEMP:  63; 6HR MAX TEMP:  68;

BENTONVILLE    PTCLDY    63  55  77 SE6       30.07R
6HR MIN TEMP:  61; 6HR MAX TEMP:  66;

ROGERS         PTCLDY    63  59  87 E6        30.08R
6HR MIN TEMP:  62; 6HR MAX TEMP:  67;

SILOAM SPGS    PTCLDY    63  54  72 E5        30.04R
6HR MIN TEMP:  63; 6HR MAX TEMP:  66;

HIGHFILL       PTCLDY    62  60  93 E3        30.06R
6HR MIN TEMP:  61; 6HR MAX TEMP:  66;

SPRINGDALE     PTCLDY    63  57  82 E5        30.08R
$$

ARZ004-005-016-281300-
NORTH CENTRAL ARKANSAS

CITY           SKY/WX    TMP DP  RH WIND       PRES   REMARKS
BATESVILLE     PTCLDY    57  55  94 NW3       30.09R
6HR MIN TEMP:  55; 6HR MAX TEMP:  63;

FLIPPIN        CLEAR     57  54  88 CALM      30.07S
6HR MIN TEMP:  57; 6HR MAX TEMP:  63;

MTN HOME       CLEAR     59  57  93 CALM      30.08S
6HR MIN TEMP:  57; 6HR MAX TEMP:  63;

$$

ARZ040-041-281300-
WEST CENTRAL ARKANSAS

CITY           SKY/WX    TMP DP  RH WIND       PRES   REMARKS
MENA             N/A     59  57  94 CALM      30.06F
MOUNT IDA      CLEAR     58  56  93 CALM      30.04S FOG
6HR MIN TEMP:  58; 6HR MAX TEMP:  63;

$$

ARZ009-017-025-026-028-281300-
NORTHEAST ARKANSAS

CITY           SKY/WX    TMP DP  RH WIND       PRES   REMARKS
JONESBORO      CLEAR     60  58  92 NE6       30.08R
6HR MIN TEMP:  58; 6HR MAX TEMP:  62;

NEWPORT        CLEAR     59  59 100 N3        30.08S FOG
6HR MIN TEMP:  59; 6HR MAX TEMP:  66;

WALNUT RIDGE   PTCLDY    59  55  88 NE6       30.08S
6HR MIN TEMP:  57; 6HR MAX TEMP:  63;

BLYTHEVILLE    CLEAR     59  58  96 CALM      30.09R
6HR MIN TEMP:  57; 6HR MAX TEMP:  61;

$$

ARZ022-023-033-042-044-281300-
CENTRAL ARKANSAS

CITY           SKY/WX    TMP DP  RH WIND       PRES   REMARKS
LITTLE ROCK    PTCLDY    63  60  90 NE3       30.06S
6HR MIN TEMP:  61; 6HR MAX TEMP:  67;

N LITTLE ROCK    N/A     64  61  91 NE3       30.06S
6HR MIN TEMP:  63; 6HR MAX TEMP:  67;

JACKSONVILLE   CLEAR     58  56  94 CALM      30.06R
6HR MIN TEMP:  58; 6HR MAX TEMP:  63;

SEARCY         CLEAR     58  58 100 CALM      30.08S
6HR MIN TEMP:  58; 6HR MAX TEMP:  62;

HOT SPRINGS    CLEAR     61  58  90 CALM      30.06R
6HR MIN TEMP:  60; 6HR MAX TEMP:  68;

RUSSELLVILLE   CLEAR     61  59  93 CALM      30.06R FOG
6HR MIN TEMP:  59; 6HR MAX TEMP:  64;

$$

ARZ036-281300-
EAST ARKANSAS

CITY           SKY/WX    TMP DP  RH WIND       PRES   REMARKS
WEST MEMPHIS   CLEAR     61  61 100 NE3       30.06R
6HR MIN TEMP:  -1; 6HR MAX TEMP:  62;

$$

ARZ050-053-066-070-073-281300-
SOUTHWEST ARKANSAS

CITY           SKY/WX    TMP DP  RH WIND       PRES   REMARKS
ARKADELPHIA    FAIR      58  58 100 CALM      30.06R
6HR MIN TEMP:  57; 6HR MAX TEMP:  64;

CAMDEN         CLEAR     57  54  88 CALM      30.04S FOG
TEXARKANA      CLEAR     62  60  93 E3        30.04S
6HR MIN TEMP:  60; 6HR MAX TEMP:  69;

EL DORADO      CLEAR     58  57  97 CALM      30.04S
6HR MIN TEMP:  57; 6HR MAX TEMP:  62;

DE QUEEN       FOG       58  58 100 CALM      30.02S VSB 1/4
6HR MIN TEMP:  57; 6HR MAX TEMP:  64;

$$

ARZ056-057-069-281300-
SOUTHEAST ARKANSAS

CITY           SKY/WX    TMP DP  RH WIND       PRES   REMARKS
PINE BLUFF     CLEAR     60  58  92 CALM      30.05S
6HR MIN TEMP:  57; 6HR MAX TEMP:  65;

STUTTGART      CLEAR     59  54  82 N5        30.06R
6HR MIN TEMP:  59; 6HR MAX TEMP:  64;

MONTICELLO     CLEAR     59  58  96 CALM      30.04S
6HR MIN TEMP:  59; 6HR MAX TEMP:  64;


$$





USA.gov is the U.S. government's official web portal to all federal, state and local government web resources and services.